Погода в Сабанчино

Россия / Чувашская Республика     55°09′26″N   47°54′11″E
темп.,
°C
ветер,
м/с
пор.,
м/с
влажн.,
%
обл.,
%
осадки,
мм/ч
давл.,
гПа
погр.,
м
23 января, сб
сб2300:00−17вюв4796100 0.0 1022199
03:00−15юв5996100 0.3 1022265
06:00−13юв51095100 0.3 1021274
09:00−11ююв61095100 1.4 1020309
12:00−9ююв6995100 0.4 1020303
15:00−7ююв6995100 0.6 1019276
18:00−6ююв5996100 0.4 1019232
21:00−4ююв5997100 0.6 1018216
24 января, вс
вс2400:00+1юз510100100 0.2 1017246
03:00+1зюз511100100 0.5 1018304
06:00+1юз389698 0.0 1019225
09:00+1ююз4899100 0.0 1020248
12:00+1ююз38100100 0.1 1021228
15:00+1ююз49100100 0.2 1021249
18:00+1ююз48100100 0.2 1022255
21:00+1ююз4899100 0.2 1023260
25 января, пн
пн2500:00+1ююз41099100 0.1 1023292
03:00+1ююз51095100 0.6 1023447
06:00+1ююз61197100 0.3 1024431
09:00−2ююз51093100 0.4 1025288
12:00−2ю51091100 0.0 1025321
15:00−4ю6119375 0.1 1026333
18:00−4ю6119774 0.0 1026383
21:00−2ю6119287 0.0 1026615
26 января, вт
вт2600:00−2ю51194100 0.1 1025658
03:00−3ю61194100 0.2 1024509
06:00−3ю6119498 0.1 1023450
09:00−3ю61192100 0.1 1023618
12:00−3ю71392100 0.0 1023611
15:00−2ю71192100 0.1 1021589
18:00−3ю71294100 0.1 1021675
21:00−2ю71293100 0.1 1021529
27 января, ср
ср2700:00−2ю61294100 0.0 1021509
03:00−1ю61194100 0.1 1020451
06:000ююз51096100 0.1 1019410
09:00−3ю71394100 3.5 1019464
12:00−3ю71195100 0.1 1020438
15:00−2ю499699 0.0 1022277
18:00−6ююв61294100 0.0 1020341
21:00−2ю61196100 0.9 1018474